Location: Hains Lake
(37.8540°N, 99.8578°W)
Time: 16:32:36
(UTC+00:00)

Vanguard 1 - Pass Details

Date: 08 December 2021
Orbit: 652 x 3830 km, 34.2° (Epoch: 22 January)

Event Time Altitude Azimuth Distance (km) Brightness Sun altitude
Rises 03:43:25 0° 216° (SW) 5,951 14.3 -51.1°
Reaches altitude 10° 03:47:00 10° 210° (SSW) 5,310 13.9 -51.8°
Enters shadow 03:53:57 31° 192° (SSW) 4,414 13.2 -53.2°
